[[{"header":{"parameterUnit":"m.s-1","parameterCategory":1,"la1":30.2991,"la2":30.254,"lo1":-89.0895,"lo2":-89.0444,"dy":0.0017,"dx":0.0017,"nx":28,"ny":28,"refTime":"2023-07-17T21:00:00:Z","depth":0,"parameterNumber":2,"parameterNumberName":"U-component_of_WINDS"},"data":[0,0,0,0,0,0,0,0,0,0,0,0,0,0,0,0,0,0,0,0,0,0,0,0,0,0,0,0,0,0,0,0,0,0,0,0,0,0,0,0,0,0,0,0,0,0,0,0,0,0,0,0,0,0,0,0,0,0,1.5022,1.5021,0,1.495,1.495,1.4949,1.4885,1.4884,1.4883,1.4883,1.4808,1.4807,1.4805,0,0,0,0,0,0,0,0,0,0,0,0,0,1.5104,1.5103,1.5022,1.5021,1.502,1.495,1.4949,1.4948,1.4885,1.4884,1.4883,1.4882,1.4808,1.4807,1.4805,0,0,0,0,0,0,0,0,0,0,0,0,0,1.5054,1.5103,1.5022,1.498,1.4976,1.4951,1.4949,1.4948,1.4885,1.4884,1.4883,1.4882,1.4809,1.4807,1.4805,1.4815,0,0,1.4799,1.4798,0,0,0,0,0,0,0,0,1.5057,1.5051,1.4987,1.4983,1.4978,1.4925,1.4951,1.4904,1.4885,1.4919,1.4883,1.4881,1.4848,1.4843,1.4832,1.4812,1.4809,1.4799,1.4798,1.4797,1.4796,0,0,0,0,0,0,0,1.5061,1.5054,1.4994,1.4986,1.4981,1.4965,1.4957,1.4942,1.4891,1.4916,1.4912,1.4904,1.4845,1.4834,1.4829,1.4808,1.4799,1.4797,1.4796,1.4795,1.4795,1.4796,0,0,0,0,0,0,1.5071,1.5057,1.4996,1.4991,1.5016,1.4964,1.4955,1.4943,1.4891,1.4882,1.4905,1.4901,1.4837,1.4832,1.4826,1.4836,1.4797,1.4795,1.4794,1.4794,1.4795,1.4797,0,0,0,0,0,0,1.5073,1.5066,1.4999,1.5023,1.5013,1.4964,1.4952,1.4943,1.4931,1.4882,1.4873,1.4903,1.4836,1.4829,1.4819,1.4833,1.4794,1.4792,1.4793,1.4794,1.4796,1.4856,0,0,0,0,0,0,1.5075,1.5067,1.507,1.5024,1.5012,1.4993,1.4952,1.4942,1.4928,1.4922,1.4877,1.4869,1.4835,1.4823,1.4817,1.483,1.4791,1.4791,1.4793,1.4796,1.4852,1.4859,1.4865,0,0,0,0,0,1.5078,1.5089,1.507,1.5063,1.5015,1.4994,1.4987,1.4948,1.4929,1.4932,1.4902,1.487,1.4833,1.4822,1.4816,1.4827,1.479,1.4793,1.4795,1.485,1.4858,1.4865,0,0,0,0,0,0,1.5137,1.5082,1.5061,1.5057,1.5031,1.4983,1.4985,1.4958,1.4936,1.4932,1.4884,1.4874,1.487,1.4848,1.4837,1.4836,1.4807,1.4809,1.4851,1.4858,1.4865,1.487,1.4789,0,0,0,0,0,1.515,1.5137,1.5089,1.509,1.5078,1.5035,1.5023,1.4996,1.4967,1.4955,1.4923,1.4896,1.4878,1.4867,1.4847,1.4849,1.4839,1.4854,1.4861,1.4867,1.4868,1.4869,1.4876,1.4805,1.4805,1.4805,0,0,1.5175,1.5143,1.5138,1.5101,1.5078,1.5066,1.5025,1.5014,1.5005,1.4953,1.4942,1.4918,1.4885,1.4881,1.4878,1.4862,1.4886,1.487,1.4875,1.4873,1.4873,1.4879,1.4885,1.4807,1.4807,1.4806,0,0,1.5216,1.519,1.5189,1.5167,1.5132,1.5103,1.5104,1.5061,1.5043,1.5032,1.4993,1.4982,1.4951,1.493,1.4914,1.495,1.4921,1.4945,1.4979,1.498,1.4986,1.4991,1.5004,1.501,1.4947,1.4947,1.4947,0,1.5251,1.5232,1.5192,1.5183,1.5169,1.5123,1.5122,1.5102,1.5063,1.5054,1.5038,1.5,1.4974,1.4966,1.4975,1.4964,1.4963,1.495,1.4989,1.4993,1.4997,1.5009,1.5014,1.495,1.495,1.495,1.4949,0,1.5279,1.5266,1.5269,1.5234,1.522,1.5216,1.5175,1.5166,1.514,1.5114,1.5104,1.5071,1.5045,1.5041,1.5015,1.503,1.5022,1.4998,1.4968,1.5007,1.5018,1.5023,1.4955,1.4954,1.4953,1.4952,0,0,1.5352,1.5297,1.5299,1.5283,1.5243,1.5232,1.5227,1.5202,1.5196,1.5171,1.5165,1.5142,1.512,1.5103,1.5075,1.5077,1.5109,1.5052,1.5051,1.5064,1.5124,1.5143,1.5149,1.5089,1.509,1.5091,1.5127,0,1.5387,1.5374,1.5338,1.5336,1.5325,1.5283,1.5278,1.5253,1.5228,1.5215,1.5188,1.5173,1.5144,1.5134,1.5134,1.5105,1.512,1.5102,1.5084,1.5084,1.5094,1.5154,1.5173,1.5209,1.5131,1.5132,1.5132,0,1.5424,1.5404,1.5401,1.5364,1.5358,1.5354,1.533,1.5318,1.529,1.5272,1.5255,1.5224,1.5216,1.5189,1.5178,1.5167,1.5158,1.5143,1.5143,1.514,1.511,1.5153,1.5219,1.5225,1.5138,1.5138,1.5137,0,1.548,1.5451,1.5446,1.5434,1.539,1.5389,1.537,1.5341,1.5329,1.5308,1.5301,1.5279,1.5267,1.5251,1.5216,1.5199,1.521,1.5179,1.5195,1.5196,1.5199,1.5199,1.5265,1.5193,1.5193,1.5193,1.5192,0,1.5522,1.5522,1.5471,1.5468,1.5468,1.5428,1.5428,1.5406,1.538,1.5373,1.5334,1.5328,1.5282,1.527,1.5243,1.5239,1.5233,1.5219,1.5212,1.5223,1.5225,1.5216,1.5213,1.5194,1.5194,1.5193,1.5193,0,1.5583,1.5549,1.5541,1.5501,1.5491,1.5492,1.5458,1.5454,1.5428,1.5419,1.5414,1.5374,1.5358,1.5322,1.5297,1.5278,1.5282,1.5268,1.5292,1.5287,1.5305,1.5304,1.5368,1.5374,1.5298,1.5299,1.53,0,1.5612,1.5611,1.5572,1.5565,1.5548,1.5536,1.5525,1.5486,1.5476,1.5445,1.5445,1.5427,1.5411,1.5389,1.5357,1.5338,1.5323,1.5347,1.532,1.5332,1.5325,1.5325,1.5326,1.5353,1.5354,1.5355,1.5355,0,1.5668,1.5651,1.5637,1.5617,1.5605,1.5587,1.5567,1.5563,1.552,1.551,1.5495,1.5483,1.5458,1.5441,1.5418,1.5398,1.537,1.5365,1.5367,1.5378,1.5392,1.5386,1.5308,1.5363,1.5362,1.5362,1.5361,1.5361,1.5714,1.5712,1.5685,1.567,1.5652,1.5635,1.563,1.5604,1.5591,1.5568,1.5546,1.5534,1.5507,1.5473,1.5456,1.5446,1.5431,1.5435,1.5436,1.5438,1.5443,1.5394,1.5441,1.5441,1.5441,1.5441,1.5441,0,1.5768,1.5749,1.5737,1.5711,1.57,1.5676,1.5653,1.5645,1.5635,1.5613,1.5598,1.5582,1.5566,1.5534,1.5515,1.5513,1.55,1.5509,1.5509,1.5505,1.5457,1.5457,1.5521,1.5521,1.5521,1.5521,1.5521,1.5521,1.5795,1.5792,1.5773,1.5761,1.5741,1.5729,1.5719,1.5703,1.5686,1.5669,1.5656,1.5636,1.561,1.5589,1.5574,1.5565,1.556,1.5574,1.5561,1.5516,1.5509,1.5501,1.5501,1.5573,1.5574,1.5611,1.5611,1.5611]},{"header":{"parameterUnit":"m.s-1","parameterCategory":1,"la1":30.2991,"la2":30.254,"lo1":-89.0895,"lo2":-89.0444,"dy":0.0017,"dx":0.0017,"nx":28,"ny":28,"refTime":"2023-07-17T21:00:00:Z","depth":0,"parameterNumber":3,"parameterNumberName":"V-component_of_WINDS"},"data":[0,0,0,0,0,0,0,0,0,0,0,0,0,0,0,0,0,0,0,0,0,0,0,0,0,0,0,0,0,0,0,0,0,0,0,0,0,0,0,0,0,0,0,0,0,0,0,0,0,0,0,0,0,0,0,0,0,0,-1.9473,-1.9474,0,-1.9516,-1.9516,-1.9517,-1.9514,-1.9513,-1.9513,-1.9512,-1.9555,-1.9557,-1.9559,0,0,0,0,0,0,0,0,0,0,0,0,0,-1.9392,-1.9393,-1.9473,-1.9474,-1.9474,-1.9516,-1.9516,-1.9517,-1.9514,-1.9513,-1.9512,-1.9512,-1.9555,-1.9557,-1.9559,0,0,0,0,0,0,0,0,0,0,0,0,0,-1.943,-1.9394,-1.9473,-1.9478,-1.9479,-1.9515,-1.9516,-1.9517,-1.9514,-1.9513,-1.9512,-1.9511,-1.9554,-1.9557,-1.9559,-1.9594,0,0,-1.9567,-1.9568,0,0,0,0,0,0,0,0,-1.9428,-1.9433,-1.9477,-1.9478,-1.9479,-1.9509,-1.9503,-1.9543,-1.9514,-1.9501,-1.9512,-1.9511,-1.9541,-1.9544,-1.9554,-1.9596,-1.9598,-1.9567,-1.9569,-1.957,-1.9571,0,0,0,0,0,0,0,-1.9425,-1.9431,-1.949,-1.9477,-1.9479,-1.9479,-1.9483,-1.9511,-1.9525,-1.9502,-1.9502,-1.9507,-1.9541,-1.9552,-1.9555,-1.9598,-1.9567,-1.957,-1.9571,-1.9572,-1.9673,-1.9674,0,0,0,0,0,0,-1.9421,-1.9429,-1.9489,-1.9491,-1.9451,-1.9481,-1.9486,-1.95,-1.9525,-1.9528,-1.9508,-1.9507,-1.9548,-1.9552,-1.9557,-1.9601,-1.957,-1.9573,-1.9574,-1.9672,-1.9674,-1.9675,0,0,0,0,0,0,-1.942,-1.9427,-1.9487,-1.946,-1.9468,-1.9483,-1.9499,-1.9501,-1.9512,-1.9529,-1.9532,-1.9516,-1.9547,-1.9553,-1.9585,-1.9602,-1.9574,-1.9576,-1.9671,-1.9673,-1.9674,-1.9688,0,0,0,0,0,0,-1.9417,-1.9426,-1.9439,-1.9461,-1.9469,-1.9514,-1.95,-1.9503,-1.9516,-1.9516,-1.9538,-1.9541,-1.9547,-1.9581,-1.9588,-1.9605,-1.9578,-1.9669,-1.9672,-1.9674,-1.9686,-1.969,-1.9693,0,0,0,0,0,-1.9414,-1.9441,-1.944,-1.9447,-1.9486,-1.9515,-1.952,-1.9527,-1.9518,-1.9531,-1.9543,-1.954,-1.9599,-1.9585,-1.9592,-1.961,-1.9668,-1.9671,-1.9673,-1.9685,-1.9689,-1.9693,0,0,0,0,0,0,-1.942,-1.9444,-1.9443,-1.9477,-1.9494,-1.9515,-1.9532,-1.9531,-1.9552,-1.955,-1.9558,-1.9563,-1.9596,-1.9606,-1.959,-1.9647,-1.9633,-1.9637,-1.9639,-1.9643,-1.9647,-1.9644,-1.958,0,0,0,0,0,-1.9426,-1.9448,-1.9467,-1.9495,-1.9504,-1.9516,-1.953,-1.9533,-1.9552,-1.9559,-1.9573,-1.9591,-1.9614,-1.9629,-1.9651,-1.9687,-1.9693,-1.9704,-1.9707,-1.971,-1.9714,-1.9737,-1.9742,-1.9683,-1.9683,-1.9683,0,0,-1.9437,-1.9452,-1.9465,-1.9496,-1.951,-1.9534,-1.9523,-1.9547,-1.9565,-1.9563,-1.9595,-1.9606,-1.9627,-1.9662,-1.9678,-1.9671,-1.9732,-1.9714,-1.9716,-1.9718,-1.974,-1.9745,-1.975,-1.9685,-1.9685,-1.9684,0,0,-1.9469,-1.9482,-1.9508,-1.9523,-1.9545,-1.9553,-1.956,-1.9581,-1.9588,-1.962,-1.962,-1.9641,-1.968,-1.9696,-1.9709,-1.9749,-1.9748,-1.9756,-1.9775,-1.9797,-1.9802,-1.9806,-1.9822,-1.9828,-1.9759,-1.976,-1.976,0,-1.948,-1.9515,-1.9522,-1.9547,-1.9562,-1.9561,-1.9589,-1.9602,-1.963,-1.9641,-1.9633,-1.9683,-1.9697,-1.9737,-1.9747,-1.9757,-1.9766,-1.9754,-1.98,-1.9805,-1.9809,-1.9825,-1.983,-1.976,-1.976,-1.976,-1.976,0,-1.9529,-1.9553,-1.9572,-1.96,-1.9616,-1.9642,-1.9653,-1.9669,-1.9672,-1.9682,-1.9715,-1.9732,-1.9759,-1.9768,-1.977,-1.9809,-1.9805,-1.9799,-1.9785,-1.9815,-1.983,-1.9836,-1.9762,-1.9762,-1.9761,-1.9761,0,0,-1.9566,-1.9598,-1.9605,-1.9619,-1.9643,-1.9663,-1.9689,-1.9715,-1.973,-1.9749,-1.9773,-1.9807,-1.9802,-1.9817,-1.9821,-1.984,-1.9874,-1.9832,-1.9832,-1.9841,-1.992,-1.9926,-1.9932,-1.9873,-1.9874,-1.9875,-1.9919,0,-1.9603,-1.965,-1.9658,-1.97,-1.9724,-1.9725,-1.9748,-1.9766,-1.9777,-1.9799,-1.981,-1.9834,-1.9825,-1.9834,-1.9853,-1.9866,-1.989,-1.9862,-1.9896,-1.9897,-1.9893,-1.994,-1.9946,-1.9987,-1.9925,-1.9926,-1.9926,0,-1.9651,-1.9673,-1.9718,-1.9742,-1.9752,-1.9773,-1.9799,-1.9819,-1.9841,-1.9847,-1.9864,-1.9867,-1.9896,-1.9881,-1.9922,-1.9903,-1.9917,-1.9926,-1.9927,-1.9932,-1.9915,-1.9948,-2.0,-2.0006,-1.9935,-1.9934,-1.9934,0,-1.9677,-1.9717,-1.975,-1.9761,-1.9789,-1.9804,-1.9816,-1.9836,-1.9852,-1.9875,-1.9886,-1.9911,-1.9925,-1.9945,-1.9955,-1.9943,-1.9997,-1.9981,-2.0004,-2.0004,-2.0016,-2.0016,-2.0073,-2.0022,-2.0022,-2.0022,-2.0022,0,-1.9718,-1.9746,-1.9762,-1.9782,-1.9814,-1.9823,-1.9854,-1.9866,-1.9884,-1.9908,-1.9909,-1.9931,-1.9942,-1.9966,-1.9974,-2.0008,-2.0014,-2.0021,-2.0023,-2.0022,-2.0021,-2.0032,-2.0031,-2.0024,-2.0024,-2.0023,-2.0023,0,-1.9751,-1.9763,-1.9799,-1.9823,-1.983,-1.9852,-1.9873,-1.9893,-1.9904,-1.9933,-1.9941,-1.9957,-1.9986,-1.9997,-2.0032,-2.0037,-2.0077,-2.0076,-2.007,-2.0072,-2.0094,-2.0093,-2.0162,-2.0173,-2.0114,-2.0114,-2.0114,0,-1.9777,-1.9799,-1.9826,-1.9842,-1.9855,-1.988,-1.9897,-1.9906,-1.9924,-1.9951,-1.9969,-1.9997,-2.0021,-2.0066,-2.0082,-2.0109,-2.011,-2.0132,-2.0114,-2.0113,-2.0113,-2.0112,-2.0115,-2.0136,-2.0137,-2.0137,-2.0137,0,-1.9823,-1.9829,-1.9852,-1.9879,-1.99,-1.9921,-1.9942,-1.9955,-1.9968,-1.9988,-2.0017,-2.0035,-2.0072,-2.0101,-2.0129,-2.0142,-2.0143,-2.0143,-2.015,-2.015,-2.0147,-2.0151,-2.0082,-2.0142,-2.0141,-2.0141,-2.0141,-2.014,-1.9855,-1.9876,-1.9898,-1.9926,-1.9943,-1.9963,-1.9984,-1.9997,-2.0022,-2.0052,-2.0056,-2.0089,-2.0111,-2.0149,-2.0164,-2.019,-2.0184,-2.0194,-2.0197,-2.02,-2.0202,-2.0141,-2.0195,-2.0195,-2.0195,-2.0195,-2.0195,0,-1.9903,-1.9918,-1.9943,-1.9973,-1.9995,-1.9993,-2.0017,-2.0036,-2.0064,-2.0085,-2.0108,-2.0144,-2.0172,-2.019,-2.022,-2.0237,-2.0238,-2.0245,-2.0244,-2.0248,-2.0204,-2.0196,-2.0243,-2.0243,-2.0243,-2.0243,-2.0243,-2.0243,-1.9931,-1.9966,-1.9974,-2.0018,-2.0033,-2.0065,-2.0079,-2.0098,-2.0115,-2.0154,-2.0178,-2.019,-2.021,-2.0241,-2.0268,-2.0273,-2.0284,-2.0292,-2.0296,-2.0256,-2.0251,-2.0246,-2.0238,-2.0293,-2.0293,-2.0338,-2.0338,-2.0338]}]]